Location: Unspecified
(0.0000°N, 0.0000°E)
Time: 18:23:12
(UTC+00:00)

ITUPSAT 1 - Pass Details

Date: 11 December 2017
Orbit: 702 x 713 km, 98.6° (Epoch: 23 June)

Event Time Altitude Azimuth Distance (km) Brightness Sun altitude
Rises 03:24:19 0° 177° (S) 3,101 ? -33.8°
Reaches altitude 10° 03:26:38 10° 182° (S) 2,178 ? -33.3°
Enters shadow 03:27:15 14° 184° (S) 1,936 ? -33.2°
